INTELSAT 32E (IS-32E)

Last updated on Sun Jun 21 2026 00:03:07 GMT+0000 (Coordinated Universal Time)

1 41945U 17007B 26171.16959029 -.00000274 00000+0 00000+0 0 9998 2 41945 0.0183 13.4283 0000627 315.6456 317.1739 1.00270661 34251
UTC large
Height (km)
Speed (km/s)
/
Latitude / Longitude
Inclination (degrees)
Orbital Period (minutes)
Azimuth
Elevation
Range (km)
Doppler Factor

Next 0 passes for location: London (51.5072 / 0.1276)

No passes found over London.
INTELSAT 32E (IS-32E)